• en Belgique
  • Liste des pays
  • À 7 jours
  • Température de l'eau
  • Carte satellitaire
  • Carte météo
  • Widgets météo
  • user-avatar
    Se connecter

    Météo par heure à Kranevo

    Ce jour, 27 Mai, Dimanche

    Heure Température Précipitation Vent Pression Humidité
    00:00 +17°C° 0 mm 5 m/s 759 mmHg 95%
    01:00 +17°C° 0 mm 5 m/s 758 mmHg 95%
    02:00 +17°C° 0 mm 5 m/s 758 mmHg 95%
    03:00 +17°C° 0 mm 6 m/s 758 mmHg 94%
    04:00 +17°C° 0 mm 6 m/s 758 mmHg 94%
    05:00 +17°C° 0 mm 6 m/s 758 mmHg 93%
    06:00 +17°C° 0,1 mm 6 m/s 759 mmHg 90%
    07:00 +19°C° 0,1 mm 6 m/s 759 mmHg 87%
    08:00 +20°C° 0,1 mm 7 m/s 759 mmHg 85%
    09:00 +20°C° 0,1 mm 7 m/s 759 mmHg 82%
    10:00 +21°C° 0,1 mm 7 m/s 759 mmHg 79%
    11:00 +21°C° 0,1 mm 7 m/s 760 mmHg 76%
    12:00 +22°C° 0 mm 7 m/s 760 mmHg 74%
    13:00 +22°C° 0 mm 7 m/s 759 mmHg 71%
    14:00 +22°C° 0 mm 7 m/s 759 mmHg 69%
    15:00 +22°C° 0 mm 7 m/s 759 mmHg 69%
    16:00 +22°C° 0 mm 7 m/s 759 mmHg 69%
    17:00 +22°C° 0 mm 7 m/s 759 mmHg 69%
    18:00 +20°C° 0 mm 6 m/s 759 mmHg 74%
    19:00 +19°C° 0 mm 6 m/s 759 mmHg 78%
    20:00 +16°C° 0 mm 5 m/s 759 mmHg 83%
    21:00 +16°C° 0 mm 5 m/s 759 mmHg 84%
    22:00 +15°C° 0 mm 5 m/s 760 mmHg 84%
    23:00 +15°C° 0 mm 4 m/s 760 mmHg 85%

    Demain, 28 Mai, Lundi

    Heure Température Précipitation Vent Pression Humidité
    00:00 +14°C° 0 mm 5 m/s 760 mmHg 85%
    01:00 +14°C° 0 mm 5 m/s 759 mmHg 85%
    02:00 +14°C° 0 mm 5 m/s 759 mmHg 85%
    03:00 +14°C° 0 mm 5 m/s 759 mmHg 84%
    04:00 +14°C° 0 mm 5 m/s 759 mmHg 84%
    05:00 +14°C° 0 mm 6 m/s 759 mmHg 84%
    06:00 +15°C° 0 mm 6 m/s 760 mmHg 78%
    07:00 +17°C° 0 mm 6 m/s 760 mmHg 73%
    08:00 +20°C° 0 mm 7 m/s 760 mmHg 68%
    09:00 +21°C° 0 mm 7 m/s 760 mmHg 65%
    10:00 +22°C° 0 mm 7 m/s 760 mmHg 62%
    11:00 +23°C° 0 mm 7 m/s 760 mmHg 59%
    12:00 +23°C° 0 mm 7 m/s 760 mmHg 59%
    13:00 +23°C° 0 mm 7 m/s 760 mmHg 58%
    14:00 +24°C° 0 mm 7 m/s 760 mmHg 57%
    15:00 +23°C° 0 mm 7 m/s 759 mmHg 59%
    16:00 +23°C° 0 mm 7 m/s 759 mmHg 60%
    17:00 +22°C° 0 mm 7 m/s 759 mmHg 61%
    18:00 +21°C° 0 mm 6 m/s 759 mmHg 67%
    19:00 +19°C° 0 mm 5 m/s 759 mmHg 73%
    20:00 +16°C° 0 mm 5 m/s 759 mmHg 78%
    21:00 +16°C° 0 mm 5 m/s 759 mmHg 78%
    22:00 +15°C° 0 mm 5 m/s 759 mmHg 77%
    23:00 +15°C° 0 mm 5 m/s 759 mmHg 77%

    Après-demain, 29 Mai, Mardi

    Heure Température Précipitation Vent Pression Humidité
    00:00 +15°C° 0 mm 5 m/s 759 mmHg 74%
    01:00 +15°C° 0 mm 5 m/s 759 mmHg 72%
    02:00 +14°C° 0 mm 5 m/s 759 mmHg 70%
    03:00 +14°C° 0 mm 5 m/s 759 mmHg 71%
    04:00 +14°C° 0 mm 5 m/s 759 mmHg 73%
    05:00 +14°C° 0 mm 6 m/s 758 mmHg 75%
    06:00 +16°C° 0 mm 6 m/s 758 mmHg 72%
    07:00 +18°C° 0 mm 7 m/s 758 mmHg 70%
    08:00 +21°C° 0 mm 7 m/s 759 mmHg 67%
    09:00 +21°C° 0 mm 7 m/s 759 mmHg 65%
    10:00 +22°C° 0 mm 7 m/s 759 mmHg 63%
    11:00 +23°C° 0 mm 7 m/s 759 mmHg 61%
    12:00 +24°C° 0 mm 7 m/s 758 mmHg 61%
    13:00 +24°C° 0 mm 7 m/s 758 mmHg 61%
    14:00 +24°C° 0 mm 7 m/s 758 mmHg 61%
    15:00 +24°C° 0 mm 7 m/s 758 mmHg 62%
    16:00 +23°C° 0 mm 7 m/s 757 mmHg 63%
    17:00 +23°C° 0 mm 7 m/s 757 mmHg 64%
    18:00 +22°C° 0 mm 6 m/s 757 mmHg 69%
    19:00 +20°C° 0 mm 6 m/s 757 mmHg 73%
    20:00 +19°C° 0 mm 5 m/s 757 mmHg 78%
    21:00 +18°C° 0 mm 4 m/s 757 mmHg 80%
    22:00 +18°C° 0 mm 4 m/s 757 mmHg 83%
    23:00 +17°C° 0 mm 4 m/s 757 mmHg 86%

    30 Mai, Mercredi

    Heure Température Précipitation Vent Pression Humidité
    00:00 +17°C° 0 mm 4 m/s 757 mmHg 87%
    01:00 +17°C° 0 mm 4 m/s 756 mmHg 89%
    02:00 +15°C° 0 mm 4 m/s 756 mmHg 91%
    03:00 +15°C° 0 mm 5 m/s 756 mmHg 91%
    04:00 +15°C° 0 mm 5 m/s 756 mmHg 91%
    05:00 +16°C° 0 mm 5 m/s 756 mmHg 90%
    06:00 +17°C° 0 mm 5 m/s 756 mmHg 85%
    07:00 +19°C° 0 mm 6 m/s 756 mmHg 79%
    08:00 +21°C° 0 mm 6 m/s 756 mmHg 74%
    09:00 +22°C° 0 mm 6 m/s 756 mmHg 71%
    10:00 +22°C° 0 mm 6 m/s 756 mmHg 67%
    11:00 +23°C° 0 mm 6 m/s 756 mmHg 64%
    12:00 +24°C° 0 mm 6 m/s 756 mmHg 62%
    13:00 +24°C° 0 mm 6 m/s 756 mmHg 60%
    14:00 +25°C° 0 mm 5 m/s 756 mmHg 58%
    15:00 +25°C° 0 mm 5 m/s 756 mmHg 59%
    16:00 +25°C° 0 mm 5 m/s 755 mmHg 60%
    17:00 +23°C° 0 mm 5 m/s 755 mmHg 60%
    18:00 +21°C° 0 mm 4 m/s 755 mmHg 68%
    19:00 +19°C° 0 mm 4 m/s 755 mmHg 75%
    20:00 +17°C° 0 mm 3 m/s 755 mmHg 82%
    21:00 +17°C° 0 mm 3 m/s 755 mmHg 82%
    22:00 +16°C° 0 mm 3 m/s 755 mmHg 81%
    23:00 +16°C° 0 mm 3 m/s 755 mmHg 81%

    31 Mai, Jeudi

    Heure Température Précipitation Vent Pression Humidité
    00:00 +14°C° 0 mm 3 m/s 754 mmHg 79%
    01:00 +14°C° 0 mm 3 m/s 754 mmHg 77%
    02:00 +14°C° 0 mm 4 m/s 754 mmHg 75%
    03:00 +14°C° 0 mm 4 m/s 754 mmHg 74%
    04:00 +14°C° 0 mm 4 m/s 754 mmHg 73%
    05:00 +13°C° 0 mm 4 m/s 754 mmHg 73%
    06:00 +15°C° 0 mm 4 m/s 754 mmHg 68%
    07:00 +18°C° 0 mm 4 m/s 754 mmHg 63%
    08:00 +20°C° 0 mm 4 m/s 754 mmHg 59%
    09:00 +22°C° 0 mm 4 m/s 754 mmHg 55%
    10:00 +23°C° 0 mm 4 m/s 754 mmHg 51%
    11:00 +25°C° 0 mm 4 m/s 754 mmHg 48%
    12:00 +26°C° 0 mm 4 m/s 754 mmHg 46%
    13:00 +26°C° 0 mm 4 m/s 754 mmHg 45%
    14:00 +27°C° 0 mm 3 m/s 754 mmHg 44%
    15:00 +26°C° 0 mm 3 m/s 753 mmHg 46%
    16:00 +26°C° 0 mm 3 m/s 753 mmHg 49%
    17:00 +25°C° 0 mm 3 m/s 753 mmHg 52%
    18:00 +23°C° 0 mm 2 m/s 753 mmHg 61%
    19:00 +20°C° 0 mm 2 m/s 753 mmHg 70%
    20:00 +18°C° 0 mm 2 m/s 753 mmHg 80%
    21:00 +18°C° 0 mm 2 m/s 753 mmHg 81%
    22:00 +17°C° 0 mm 2 m/s 753 mmHg 81%
    23:00 +17°C° 0 mm 2 m/s 753 mmHg 82%

    1 Juin, Vendredi

    Heure Température Précipitation Vent Pression Humidité
    00:00 +17°C° 0 mm 2 m/s 753 mmHg 82%
    01:00 +17°C° 0 mm 2 m/s 753 mmHg 81%
    02:00 +16°C° 0 mm 2 m/s 753 mmHg 80%
    03:00 +17°C° 0 mm 2 m/s 753 mmHg 79%
    04:00 +17°C° 0 mm 2 m/s 753 mmHg 77%
    05:00 +17°C° 0 mm 2 m/s 753 mmHg 76%
    06:00 +19°C° 0 mm 2 m/s 753 mmHg 70%
    07:00 +21°C° 0 mm 2 m/s 754 mmHg 64%
    08:00 +24°C° 0 mm 2 m/s 754 mmHg 59%
    09:00 +25°C° 0 mm 2 m/s 754 mmHg 57%
    10:00 +26°C° 0 mm 2 m/s 754 mmHg 55%
    11:00 +27°C° 0 mm 2 m/s 754 mmHg 53%
    12:00 +26°C° 0,2 mm 2 m/s 754 mmHg 57%
    13:00 +26°C° 0,2 mm 2 m/s 754 mmHg 60%
    14:00 +25°C° 0,2 mm 3 m/s 754 mmHg 64%
    15:00 +25°C° 0,1 mm 2 m/s 754 mmHg 64%
    16:00 +25°C° 0,1 mm 2 m/s 754 mmHg 64%
    17:00 +26°C° 0,1 mm 2 m/s 754 mmHg 64%
    18:00 +24°C° 0 mm 2 m/s 754 mmHg 67%
    19:00 +23°C° 0 mm 2 m/s 754 mmHg 69%
    20:00 +21°C° 0 mm 2 m/s 754 mmHg 71%
    21:00 +20°C° 0 mm 3 m/s 755 mmHg 73%
    22:00 +20°C° 0 mm 3 m/s 755 mmHg 75%
    23:00 +19°C° 0 mm 4 m/s 756 mmHg 77%
    Voir plus